Location: Bottom School (historical)
(37.9078°N, 89.3593°W)
Time: 13:52:39
(UTC+00:00)

ISS - Pass Details

Date: 08 December 2021
Orbit: 413 x 422 km, 51.6° (Epoch: 20 January)

Event Time Altitude Azimuth Distance (km) Brightness Sun altitude
Rises 23:10:01 0° 311° (NW) 2,379 0.4 -6.5°
Reaches altitude 10° 23:12:08 10° 315° (NW) 1,510 -0.6 -6.9°
Maximum altitude 23:15:31 66° 38° (NE) 462 -3.8 -7.5°
Drops below altitude 10° 23:18:51 10° 121° (ESE) 1,495 -1.3 -8.1°
Sets 23:20:57 0° 125° (SE) 2,354 -0.3 -8.5°
